Tracking 29892 objects as of 21-Nov-2024
HD Live streaming from Space Station
objects crossing your sky now

DUCHIFAT-1

Track DUCHIFAT-1 now!
10-day predictions
DUCHIFAT-1 is classified as:


NORAD ID: 40021
Int'l Code: 2014-033M
Perigee: 519.6 km
Apogee: 531.4 km
Inclination: 98.1 °
Period: 95.0 minutes
Semi major axis: 6896 km
RCS: Unknown
Launch date: June 19, 2014
Source: Israel (ISRA)
Launch site: Orenburg, Russia (OREN)

Uplink (MHz): 435.220
Downlink (MHz): 145.825/145.980
Beacon (MHz): 145.980
Mode: 1200bps BPSK CW
Call sign: 4X4HSL
Status: Active

Your satellite tracking list
Your tracking list is empty




NASA's NSSDC Master Catalog

Two Line Element Set (TLE):
1 40021U 14033M   24325.45995917  .00023385  00000-0  12217-2 0  9999
2 40021  98.1009 318.3117 0008538 299.9054  60.1329 15.15875065567723
Source of the keplerian elements: Caltech